Simultaneous Nadir Overpasses (SNOs) Predictions

Prediction of SNOs between FY3D and LANDSAT-8 Satellite Orbit:

Table of predicted SNOs for the next 14.0 days since TLE Epoch: 8/20/2022
Index Date (FY3D) Time (FY3D) Lat,Lon (FY3D) SZA (FY3D ) Date (LANDSAT-8) Time (LANDSAT-8) Lat,Lon (LANDSAT-8) SZA (LANDSAT-8 ) Distance(km) Time Diff (sec)
1 08/20/2022 04:05:13 72.05, 118.22 59.50 08/20/2022 04:05:16 72.06, 118.22 59.51 1.35 3
2 08/20/2022 04:55:56 -71.97, -74.31 120.57 08/20/2022 04:54:45 -72.00, -74.27 120.55 2.93 71
3 08/22/2022 18:41:37 72.39,-101.49 60.71 08/22/2022 18:42:48 72.28,-100.78 60.60 26.67 71
4 08/22/2022 19:32:15 -72.05, 66.50 119.63 08/22/2022 19:32:20 -72.06, 66.45 119.62 1.94 5
5 08/22/2022 20:23:00 71.97,-126.04 60.30 08/22/2022 20:21:47 71.97,-126.07 60.31 1.06 73
6 08/25/2022 10:08:40 -72.43,-153.31 118.35 08/25/2022 10:09:51 -72.32,-152.47 118.47 30.65 71
7 08/25/2022 10:59:19 72.05, 14.75 61.28 08/25/2022 10:59:21 72.07, 14.71 61.30 2.12 2
8 08/25/2022 11:50:02 -71.96,-177.76 118.80 08/25/2022 11:48:51 -71.95,-177.85 118.81 3.31 71
9 08/28/2022 01:35:42 72.35, 155.12 62.49 08/28/2022 01:36:53 72.27, 155.67 62.41 20.64 71
10 08/28/2022 02:26:22 -72.09, -37.06 117.76 08/28/2022 02:26:24 -72.10, -36.99 117.75 2.72 2
11 08/28/2022 03:17:05 71.92, 130.57 62.09 08/28/2022 03:15:52 71.95, 130.39 62.11 6.99 73
12 08/30/2022 17:02:44 -72.38, 103.32 116.54 08/30/2022 17:03:55 -72.29, 103.96 116.63 23.79 71
13 08/30/2022 17:53:24 72.07, -88.75 63.16 08/30/2022 17:53:24 72.08, -88.77 63.18 1.93 0
14 08/30/2022 18:44:07 -71.96, 78.77 116.94 08/30/2022 18:42:54 -71.98, 78.67 116.93 3.66 73
15 09/02/2022 08:29:45 72.27, 51.81 64.31 09/02/2022 08:30:57 72.21, 52.06 64.24 10.59 72
16 09/02/2022 09:20:27 -72.10,-140.55 115.85 09/02/2022 09:20:27 -72.10,-140.50 115.86 1.79 0
17 09/02/2022 10:11:08 71.84, 27.25 63.90 09/02/2022 10:09:56 71.89, 26.77 63.95 17.37 72



Historial Predications of SNOs between FY3D and LANDSAT-8
